Showing default

IRIDE-MS2-HEO-1, 62697

Orbit data source: Space-Track

IRIDE-MS2-HEO-1, 62697 is an Italian payload satellite in SSO that was launched on Tue, 14 Jan 2025 UTC via an FALCON 9 launch vehicle from the Air Force Western Test Range (AFWTR). Payload-class satellites include a variety of spacecraft equipped with specific instruments for various scientific and technological missions. These include communications satellites like Starlink; space stations such as the ISS; scientific satellites like the Hubble; Earth observation satellites from companies like Planet Labs, Umbra, and HawkEye 360; GPS; miniature CubeSats for education and research; and military/defense satellites.

Loading next visibility...
Identifier
62697, 2025-009CS
Orbit
SSO
Country
Flag of ITIT
Related business
Manufacturer
ArgoTec
Mission
Operational Civil Imaging
Bus & Motor
HAWK, Unknown motor
Mass
65 kg wet, 65 kg dry
Launch date (UTC)
2025-01-14 (1 year ago)
Launch vehicle
FALCON 9
Launch site
Air Force Western Test Range (AFWTR)
Object type
Payload
Rocket body
Debris
Shape & HBR
Box + 2 Pan, 3.0 m
Radar Cross Section
0.683 m², Medium (>0.1 m² and < 1m²)

Expand to show TLE details & history
Last TLE update: 6 hours ago

TLE from 6 hours ago
0 IRIDE-MS2-HEO-1
1 62697U 25009CS  26126.24193333  .00002421  00000-0  23093-3 0  9990
2 62697  97.7043 205.3263 0003668 125.6736 234.4827 14.94250242 71074
Epoch: 2026-05-06T05:48Z
TLE epoch observation values (Epoch: 2026-05-06T05:48:23.039Z)
Latitude
0.00005°
Longitude
-105.87494°
Altitude
589.232 km
Speed
7.565 km/s
True Right ascension
13h 41m 18s
True Declination
0° 00' 00"
Sunlit
Object was in full shadow at epoch
Visualization orbit readout
Latitude
Unknown
Longitude
Unknown
Altitude
Unknown
Speed
Unknown
Apparent Right ascension
Unknown
Apparent Declination
Unknown
Sunlit
N/A
Visualization observer readout
Local Sidereal Time
19:36:06
Azimuth
Unknown
Elevation
Unknown
Doppler factor
Unknown
Orbital elements
Apogee altitude
584.267 km
Perigee altitude
579.161 km
Semi-major axis
6,959.851 km
Eccentricity
0.00037
Inclination
97.7043°
RAAN
205.3263°
Arg. of periapsis
125.6736°
True anomaly
234.4485°
Mean anomaly
234.4827°
Eccentric anomaly
234.4656°
Mean motion
3.73803 °/min
Orbital period
96.31 mins
BSTAR
0.00023093
Loading maneuver chart data...
Computing Atmospheric mass density...
Loading historical data...
Loading historical data...
Loading historical data...
Loading historical data...
Loading historical data...
Loading historical data...
Loading historical data...

Documentation

Showing up to 5 results
|